Santa Ana, CA

8:51 AM PDT on October 18, 2017 (GMT -0700)
John Wayne-Orange County

Weather History for KSNA - July, 2013

Change the Weather History Date:

Monday, July 1, 2013

  Actual Average Record
Temperature  
Mean Temperature 78 °F 69 °F  
Max Temperature 89 °F 76 °F 89 °F (2013)
Min Temperature 67 °F 63 °F 60 °F (2005)
Degree Days  
Heating Degree Days 0 0  
Month to date heating degree days 0 0  
Since 1 June heating degree days 0 7  
Since 1 July heating degree days 0 0  
Cooling Degree Days 13 4  
Month to date cooling degree days 13 4  
Year to date cooling degree days 208 147  
Since 1 June cooling degree days 128 80  
Growing Degree Days 26 (Base 50)    
Moisture  
Dew Point 64 °F    
Average Humidity 65    
Maximum Humidity 87    
Minimum Humidity 43    
Precipitation  
Precipitation 0.00 in 0.00 in 0.00 in (2017)
Month to date precipitation 0.00 0.00  
Year to date precipitation 1.97 8.96  
Since 1 July precipitation 0.00  
Snow  
Snow 0.00 in - - ()
Month to date snowfall 0.0  
Year to date snowfall 0.0  
Snow Depth 0.00 in    
Sea Level Pressure  
Sea Level Pressure 29.85 in    
Wind  
Wind Speed 5 mph (SW)    
Max Wind Speed 14 mph    
Max Gust Speed 17 mph    
Visibility 10 miles    
Events      
T = Trace of Precipitation, MM = Missing Value Source: NWS Daily Summary

Daily Weather History Graph

Daily Weather History Graph

Search for Another Location

Airport or City:

Trip Planner

Search our weather history database for the weather conditions in past years. The results will help you decide how hot, cold, wet, or windy it might be!

Date:

Astronomy

Jul. 01, 2013 Rise Set
Actual Time 5:44 AM PDT 8:05 PM PDT
Civil Twilight 5:15 AM PDT 8:34 PM PDT
Nautical Twilight 4:40 AM PDT 9:10 PM PDT
Astronomical Twilight 4:01 AM PDT 9:48 PM PDT
Moon 1:06 AM PDT (7/1) 2:34 PM PDT (7/1)
Length of Visible Light 15h 18m
Length of Day
14h 21m
Waning Crescent, 34% of the Moon is Illuminated
Jul 1
Waning Crescent
Jul 8
New
Jul 15
First Quarter
Jul 22
Full
Jul 29
Last Quarter

Hourly Weather History & Observations

Time (PDT) Temp. Heat Index Dew Point Humidity Pressure Visibility Wind Dir Wind Speed Gust Speed Precip Events Conditions
12:53 AM 68.0 °F - 64.0 °F 87% 29.81 in 8.0 mi Calm Calm - N/A   Clear
1:53 AM 66.9 °F - 63.0 °F 87% 29.81 in 8.0 mi SSW 4.6 mph - N/A   Clear
2:53 AM 66.9 °F - 63.0 °F 87% 29.82 in 10.0 mi SSW 5.8 mph - N/A   Clear
3:53 AM 68.0 °F - 63.0 °F 84% 29.82 in 10.0 mi Calm Calm - N/A   Clear
4:53 AM 68.0 °F - 63.0 °F 84% 29.84 in 10.0 mi Calm Calm - N/A   Clear
5:53 AM 68.0 °F - 63.0 °F 84% 29.83 in 10.0 mi Calm Calm - N/A   Mostly Cloudy
6:53 AM 68.0 °F - 63.0 °F 84% 29.83 in 9.0 mi Variable 3.5 mph - N/A   Mostly Cloudy
7:53 AM 69.1 °F - 63.0 °F 81% 29.85 in 8.0 mi SW 6.9 mph - N/A   Mostly Cloudy
8:53 AM 71.1 °F - 64.0 °F 78% 29.85 in 9.0 mi SW 4.6 mph - N/A   Mostly Cloudy
9:53 AM 71.1 °F - 63.0 °F 75% 29.86 in 10.0 mi SW 9.2 mph - N/A   Mostly Cloudy
10:53 AM 73.9 °F - 63.0 °F 68% 29.88 in 10.0 mi SSW 8.1 mph - N/A   Mostly Cloudy
11:53 AM 75.9 °F - 64.0 °F 67% 29.89 in 10.0 mi SW 9.2 mph - N/A   Scattered Clouds
12:53 PM 80.1 °F 81.9 °F 64.9 °F 60% 29.88 in 10.0 mi Calm Calm - N/A   Scattered Clouds
1:53 PM 82.9 °F 84.6 °F 64.9 °F 54% 29.86 in 10.0 mi SW 9.2 mph - N/A   Mostly Cloudy
2:53 PM 87.1 °F 87.5 °F 62.1 °F 43% 29.83 in 10.0 mi NW 4.6 mph - N/A   Scattered Clouds
3:53 PM 84.0 °F 85.8 °F 64.9 °F 53% 29.82 in 10.0 mi SSW 11.5 mph - N/A   Scattered Clouds
4:53 PM 79.0 °F - 64.0 °F 60% 29.82 in 10.0 mi SSW 13.8 mph - N/A   Mostly Cloudy
5:53 PM 73.9 °F - 64.0 °F 71% 29.83 in 10.0 mi SW 12.7 mph - N/A   Scattered Clouds
6:53 PM 73.0 °F - 64.0 °F 73% 29.84 in 9.0 mi SSW 11.5 mph - N/A   Scattered Clouds
7:53 PM 71.1 °F - 64.0 °F 78% 29.85 in 8.0 mi SW 8.1 mph - N/A   Scattered Clouds
8:53 PM 70.0 °F - 64.0 °F 81% 29.87 in 10.0 mi SSW 11.5 mph - N/A   Clear
9:53 PM 70.0 °F - 63.0 °F 78% 29.88 in 10.0 mi SW 4.6 mph - N/A   Clear
10:53 PM 70.0 °F - 63.0 °F 78% 29.88 in 10.0 mi Calm Calm - N/A   Clear
11:53 PM 69.1 °F - 63.0 °F 81% 29.88 in 10.0 mi Variable 3.5 mph - N/A   Clear